AirNav   Duncan Aviation - Near you to keep you flying
 
 530 users online  

WI55 Broken Prop Airport
Berlin, Wisconsin, USA

GOING TO BERLIN?


FAA INFORMATION EFFECTIVE 26 JANUARY 2023

Location

FAA Identifier: WI55
Lat/Long: 43-59-09.9290N 088-59-00.4150W
43-59.165483N 088-59.006917W
43.9860914,-88.9834486
(estimated)
Elevation: 767 ft. / 233.8 m (surveyed)
Variation: 01W (1985)
From city: 2 miles NW of BERLIN, WI
Time zone: UTC -6 (UTC -5 during Daylight Saving Time)
Zip code: 54923

Airport Operations

Airport use: Private use. Permission required prior to landing
Activation date: 05/1970
Control tower: no
ARTCC: CHICAGO CENTER
FSS: GREEN BAY FLIGHT SERVICE STATION
Attendance: CONTINUOUS
Wind indicator: yes
Segmented circle: no

Airport Communications

WX AWOS-3PT at Y50 (14 nm W): 119.475 (920-787-0515)
WX ASOS at OSH (18 nm E): PHONE 920-426-1644

Nearby radio navigation aids

VOR radial/distance  VOR name  Freq  Var
OSHr267/18.5OSHKOSH VORTAC116.7502E

Airport Services

Airframe service: NONE
Powerplant service: NONE

Runway Information

Runway 1/19

Dimensions: 1300 x 60 ft. / 396 x 18 m
Surface: turf
RUNWAY 1  RUNWAY 19
Traffic pattern: leftleft
Obstructions: nonepline, marked

Airport Ownership and Management from official FAA records

Ownership: Privately-owned
Owner: WALTER P. SOBRALSKE
RT 3, BOX 33
BERLIN, WI 54923
Phone 414-361-1631

Airport Operational Statistics

Aircraft based on the field: 1
Single engine airplanes: 1
    

Additional Remarks

DEEP DITCH PARALLEL TO EAST SIDE OF RUNWAY.
FOR CD CTC CHICAGO ARTCC AT 630-906-8921.

Instrument Procedures

There are no published instrument procedures at WI55.

Some nearby airports with instrument procedures:

Y50 - Wautoma Municipal Airport (14 nm W)
KOSH - Wittman Regional Airport (18 nm E)
KPCZ - Waupaca Municipal Airport (21 nm N)
KFLD - Fond Du Lac County Airport (25 nm SE)
KATW - Appleton International Airport (26 nm NE)
 
Loc | Ops | Rwys | IFR | FBO | Links
Com | Nav | Svcs | Stats | Notes
Area around WI55 (Broken Prop Airport)
 
Road maps at: MapQuest Bing Google
 
Aerial photo
No photo
 
Sectional chart

 
Airport distance calculator
Flying to Broken Prop Airport? Find the distance to fly.

From to WI55

Sunrise and sunset
Times for 27-Jan-2023
 Local
(UTC-6)
 Zulu
(UTC)
Morning civil twilight06:4812:48
Sunrise07:2013:20
Sunset16:5822:58
Evening civil twilight17:2923:29

Current date and time
Zulu (UTC)  27-Jan-2023 10:50:53
Local (UTC-6)  27-Jan-2023 04:50:53
 
METAR
KY50 
14nm W 
270956Z AUTO 16006KT 10SM FEW025 SCT095 M12/M13 A2973 RMK AO2 SLP081 T11221133 FZRANO $
KOSH 
19nm E 
271000Z AUTO 17010KT 10SM SCT021 M12/M16 A2976 RMK AO2 T11221156
KPCZ 
21nm N 
271035Z AUTO 14008KT 10SM SCT026 SCT120 M10/M13 A2971 RMK AO2 T11051130
KFLD 
25nm SE 
270953Z AUTO 19011KT 10SM CLR M10/M13 A2978 RMK AO2 SLP098 T11001133
KATW 
26nm NE 
271035Z AUTO 16007KT 10SM BKN021 M11/M14 A2971 RMK AO2
TAF
NOTAMs
Click for the latest NOTAMs
NOTAMs are issued by the DoD/FAA and will open in a separate window not controlled by AirNav.

 

 
 

Would you like to see your business listed on this page?

 If your business provides an interesting product or service to pilots, flight crews, aircraft, or users of the Broken Prop Airport, you should consider listing it here.  To start the listing process, click on the button below
 
Add a business
 

Other Pages about Broken Prop Airport

Update a link
 
Copyright © AirNav, LLC. All rights reserved. Privacy Policy  Contact